Dewpoint
30 24 24 23 21 19 18 21 20 18 17 16 20 20 16 15 14 15 14 15 18 17 16 16 16 16 16 16 17 17 17 17 17 17 17 17 17 17 17 17 17 17 17 23 25 25 25 27 26 27 28 29 29 27 26 26 26 25 25 27 27 28 27 27 28 29 28 28 29 29 29 28 29 28 29 30 30 30 29 30 30 31 30 30 30 29
26 23 24 23 20 18 17 19 20 20 19 18 19 19 16 19 15 15 15 15 18 17 16 16 16 17 16 16 16 17 16 16 16 16 16 16 17 18 18 18 18 18 22 25 25 25 27 26 29 28 28 30 28 27 26 26 25 25 25 25 26 27 26 27 27 28 28 28 28 27 27 27 28 28 29 28 28 29 31 30 30 31 30 30 29 29
25 23 22 24 22 19 21 21 20 20 20 21 19 19 20 19 20 19 19 19 19 19 17 17 16 16 16 16 17 16 16 16 16 16 16 16 16 18 18 18 18 19 20 19 19 22 25 29 29 28 28 29 28 27 26 26 25 24 24 25 26 26 26 27 27 28 27 27 28 27 27 27 27 28 28 28 28 30 30 30 30 30 30 30 29 29
25 26 24 23 23 23 22 21 21 22 22 21 21 20 19 19 18 15 18 18 18 17 15 16 14 14 14 15 15 16 16 16 18 18 19 19 18 17 17 17 18 19 20 20 19 18 22 26 28 28 28 28 28 28 26 25 25 24 25 24 25 26 26 26 27 28 27 27 28 27 27 27 27 27 29 28 28 29 30 30 30 30 29 29 29 29
17 23 26 25 25 23 21 21 21 20 18 23 22 21 19 20 18 17 15 17 18 17 17 16 16 15 16 15 15 16 17 17 17 17 17 19 24 22 25 24 24 20 20 21 20 20 22 26 27 27 28 28 28 28 26 26 25 23 24 24 25 25 25 26 28 28 27 28 27 27 27 27 26 27 26 27 27 28 29 29 29 29 29 29 28 28
20 19 27 25 26 24 24 21 23 24 19 19 24 21 19 17 16 16 16 17 17 16 22 20 15 12 16 17 17 17 18 18 18 18 18 18 19 21 21 22 23 27 26 24 23 22 23 25 28 28 27 27 27 27 27 26 25 24 24 24 24 25 25 26 27 27 27 27 26 25 25 24 24 24 25 25 25 26 27 28 28 28 29 29 28 28
20 23 24 23 26 27 26 24 25 24 19 17 17 22 19 17 18 18 18 19 18 16 18 21 14 13 15 15 18 18 18 18 19 19 19 19 19 20 22 23 23 23 23 23 24 25 25 26 27 27 27 27 27 26 27 26 25 24 24 23 24 24 25 27 27 27 27 26 25 24 24 24 23 23 24 25 25 26 27 28 27 28 28 28 27 27
19 19 21 24 23 26 25 24 26 23 21 17 21 23 21 19 20 21 21 21 18 23 24 23 19 17 18 18 19 17 17 17 16 17 17 17 17 19 19 20 20 21 21 23 24 25 25 26 26 26 26 26 26 26 26 25 25 24 23 23 24 24 25 26 27 26 26 25 25 24 24 24 23 22 22 24 24 26 26 26 27 27 28 28 27 27
17 19 22 22 23 23 22 22 24 25 21 18 24 26 24 21 22 24 24 24 24 19 21 21 22 18 18 16 19 18 16 16 15 15 15 15 15 15 17 19 19 19 20 22 24 25 25 26 27 26 25 26 25 26 25 25 24 24 24 23 24 24 24 26 26 26 26 25 24 24 23 23 24 22 23 24 26 26 27 25 26 26 27 27 27 26
20 22 25 22 23 20 23 22 25 26 22 24 28 29 28 26 26 23 20 19 21 17 18 19 20 14 13 14 15 14 16 15 15 15 14 13 13 13 13 15 16 16 18 24 25 25 26 26 26 26 24 24 24 26 28 25 25 24 24 23 23 23 24 25 25 26 25 25 25 23 23 23 23 23 23 23 23 24 26 25 25 25 26 27 26 26
21 28 28 24 23 21 21 23 27 26 22 29 27 23 25 25 24 24 23 19 19 17 19 21 18 16 15 14 13 15 17 13 14 13 13 13 14 13 13 14 18 18 20 24 28 27 25 25 26 23 23 23 23 24 25 25 24 24 24 23 23 23 24 25 25 25 24 24 24 23 23 22 22 22 22 22 21 23 24 24 24 25 25 26 26 26
22 24 22 27 29 26 24 24 27 28 28 26 23 23 21 22 20 20 17 19 13 15 19 21 19 16 13 13 16 13 13 14 13 12 12 12 12 14 15 16 17 17 20 26 28 25 24 23 23 22 22 22 22 23 23 24 24 24 24 23 22 23 23 24 25 25 24 24 24 23 22 22 21 21 22 20 20 22 22 23 24 24 25 25 26 25
18 21 22 26 33 23 25 23 23 25 25 26 22 21 15 16 16 9 11 10 11 14 17 19 19 16 13 11 12 14 14 14 14 13 12 11 11 13 15 17 19 22 23 28 28 26 24 23 22 21 21 21 21 22 22 23 23 23 23 23 22 22 22 23 24 24 24 24 23 23 23 22 21 20 20 20 20 21 22 22 23 23 23 24 25 24
21 24 21 23 25 28 26 18 21 19 22 24 22 22 17 12 9 9 7 7 12 16 19 16 20 13 13 13 14 13 13 13 14 14 16 14 13 15 17 19 19 23 27 28 28 26 24 24 23 22 21 20 21 21 21 22 23 23 24 22 22 22 22 22 23 24 24 23 23 23 23 22 22 20 20 20 19 21 22 23 22 23 23 23 23 24
15 18 21 22 18 27 23 18 19 18 20 22 23 22 21 18 9 5 9 10 11 14 17 18 14 17 10 13 18 13 13 14 16 15 18 20 20 19 19 19 19 24 27 28 27 26 24 24 23 23 22 20 21 21 21 21 22 22 22 23 22 22 22 21 22 23 23 23 23 23 23 22 21 21 20 20 21 20 21 22 21 22 22 22 22 23
19 19 19 23 25 26 25 24 20 21 22 24 26 25 18 20 17 13 17 15 12 9 14 12 17 19 14 14 17 20 18 17 16 16 20 18 18 19 19 19 18 24 27 27 26 25 23 23 23 23 22 21 21 20 21 20 22 22 22 22 22 22 21 21 21 22 22 23 23 23 22 22 21 22 21 21 21 20 21 21 21 21 22 22 22 22
23 19 27 26 26 24 24 24 22 23 17 22 23 21 22 23 20 19 21 20 18 12 14 14 14 16 17 12 12 17 12 11 11 12 11 11 14 17 18 20 20 25 26 26 26 24 22 21 22 22 22 21 21 20 21 21 21 21 22 22 21 21 22 21 21 21 21 22 22 22 22 22 21 21 20 19 19 19 20 20 20 20 21 21 21 22
20 18 22 25 22 25 25 26 25 24 23 21 18 21 24 26 24 20 16 15 15 14 14 15 13 11 11 14 21 14 14 12 12 12 12 14 16 14 19 21 23 25 25 25 24 23 22 20 20 21 22 21 21 20 20 20 21 21 22 21 21 21 21 21 21 20 21 21 21 22 22 22 21 20 20 20 19 19 19 20 20 20 20 20 21 22
26 18 21 21 26 28 27 26 25 26 25 21 23 27 20 15 17 19 19 14 14 14 15 12 11 11 13 13 15 11 12 12 11 14 11 11 11 13 13 17 25 27 25 24 23 22 22 21 20 19 20 20 20 21 20 21 22 22 21 21 20 20 20 20 21 20 21 20 22 22 22 21 21 21 20 20 20 19 19 19 20 20 20 19 20 22
26 21 21 27 25 28 25 25 21 22 26 27 26 23 27 22 21 18 21 20 18 15 16 17 15 15 20 17 13 12 11 15 12 15 15 14 15 15 16 20 23 26 26 25 24 23 22 22 20 19 18 18 19 19 20 21 21 21 21 21 21 20 20 20 19 20 19 20 20 21 21 21 21 21 20 20 19 19 19 19 19 20 19 19 20 21
25 24 21 25 28 26 20 23 23 23 22 22 23 21 23 23 25 21 22 20 17 16 15 15 15 17 19 16 12 12 12 14 15 16 19 19 19 19 18 21 24 26 27 26 25 24 23 22 22 21 19 19 19 20 21 21 21 21 22 21 21 20 20 19 19 19 19 19 19 20 20 20 19 19 19 19 19 19 18 19 20 19 19 19 19 20
27 29 26 27 26 24 23 26 25 25 25 24 23 21 20 21 21 18 18 22 21 17 17 16 16 22 24 15 17 18 13 15 16 17 19 18 18 19 21 21 25 27 27 27 26 25 25 23 23 23 23 22 20 19 19 21 21 21 21 22 22 21 21 19 19 19 19 19 19 19 19 19 19 19 19 18 18 19 18 19 19 19 19 19 19 20
32 30 30 27 27 27 28 29 30 26 27 25 24 24 26 22 21 20 18 20 22 21 21 22 19 21 23 23 22 22 21 19 18 19 18 19 19 19 21 22 23 25 26 27 26 26 25 25 24 24 23 22 21 20 19 20 21 21 21 22 22 22 21 20 19 19 19 19 19 19 19 19 19 18 18 18 18 18 18 18 19 19 19 18 19 20
35 30 29 29 34 35 34 33 33 31 27 25 24 26 25 22 23 22 22 21 21 22 21 21 21 23 25 26 24 23 22 20 18 18 19 19 20 21 21 21 20 19 21 23 25 27 27 25 24 24 24 24 23 22 20 20 21 22 22 22 23 22 21 21 20 19 19 19 19 19 20 19 19 18 18 18 18 18 18 18 18 20 18 18 19 19
30 30 31 27 27 28 32 34 32 29 27 25 23 23 25 24 24 24 25 23 20 21 21 19 17 20 27 27 25 23 22 21 21 19 19 20 20 22 21 22 22 22 22 21 22 22 24 26 24 24 24 24 24 24 23 22 21 21 22 22 22 22 22 21 21 20 19 19 19 19 20 20 19 19 18 18 18 18 18 18 18 19 18 18 18 19
32 31 31 26 24 22 21 22 23 26 27 24 26 26 27 25 24 21 20 22 19 20 21 20 19 22 23 24 23 22 21 21 20 20 20 21 21 21 22 23 22 22 22 21 21 22 23 25 28 27 25 25 25 25 24 23 22 21 21 21 22 22 22 22 21 21 20 19 19 20 20 20 19 19 18 18 18 18 18 17 18 18 18 18 18 19
32 32 33 32 29 27 27 27 31 31 29 27 28 28 27 26 25 26 24 22 20 21 21 21 21 20 21 21 21 21 20 20 20 20 20 20 21 23 22 24 24 23 23 21 22 23 24 26 26 27 27 26 25 25 25 24 23 22 21 21 21 22 22 22 22 21 20 20 20 20 20 20 19 19 19 19 18 18 18 17 17 18 18 18 18 18
28 28 31 32 32 32 32 31 31 32 30 30 29 28 28 28 28 27 25 22 24 23 20 23 23 24 22 23 22 22 22 22 22 21 21 20 21 23 23 23 28 23 23 23 23 24 24 23 24 25 26 26 26 25 25 25 24 23 22 21 21 21 22 23 22 22 21 20 20 20 20 20 20 19 19 18 18 18 17 17 18 18 18 18 18 18
30 30 31 31 31 32 33 32 32 32 31 30 29 28 28 28 29 28 28 28 28 27 25 25 25 25 23 22 23 22 22 21 21 21 22 22 22 23 23 23 24 24 24 24 23 23 24 24 25 25 25 26 26 25 24 25 24 24 23 22 22 21 21 22 22 22 22 21 20 20 20 20 20 19 19 19 18 18 18 18 18 19 18 18 18 18
30 32 32 32 31 31 32 33 33 32 31 30 30 29 29 29 29 29 28 29 28 27 27 27 27 26 26 25 24 24 24 24 23 23 23 23 23 24 24 24 24 24 25 25 25 24 24 24 24 25 25 25 25 25 25 25 24 24 24 23 22 21 21 22 22 22 22 21 21 21 21 20 20 19 19 19 18 18 18 18 18 19 19 19 18 18
35 31 35 33 32 31 32 32 32 32 31 30 30 30 30 29 29 29 29 29 29 29 29 28 28 27 28 28 27 27 27 27 26 26 25 25 25 25 25 26 27 29 29 29 28 27 26 25 25 25 25 25 25 25 26 26 25 25 24 23 23 22 21 22 22 22 22 22 22 22 21 20 20 19 19 19 19 20 19 19 20 20 19 19 19 18
34 32 34 33 30 29 32 32 31 31 30 29 30 30 29 29 28 28 29 29 29 28 28 28 28 27 28 29 29 29 29 28 28 27 27 27 27 29 30 31 31 31 31 30 30 29 28 28 27 27 26 26 26 26 26 25 25 23 23 23 23 23 23 23 23 23 23 23 22 22 21 21 20 20 20 20 21 20 20 20 19 19 19 18 18 17
32 32 30 30 26 27 31 31 31 31 30 28 29 30 30 29 29 29 29 30 30 30 28 27 27 28 33 33 32 31 31 31 28 28 30 30 30 31 31 31 31 31 31 31 30 30 29 29 28 27 27 27 27 28 27 26 25 23 23 23 23 23 23 23 23 23 24 23 23 22 21 21 21 21 20 20 20 20 19 19 19 19 18 17 17 16
32 32 30 32 26 25 29 30 31 28 22 22 33 34 33 31 30 29 28 30 30 32 32 33 32 31 30 30 29 30 31 31 31 31 32 31 30 28 27 29 30 29 30 31 31 30 30 30 28 27 27 28 28 28 28 27 26 24 23 23 22 23 23 24 24 24 24 24 24 22 21 21 22 21 20 20 19 19 19 18 18 18 18 17 17 17
29 29 27 29 26 24 26 28 24 18 20 28 35 35 34 35 33 32 31 31 29 23 28 28 28 28 27 28 29 26 26 27 32 32 30 31 29 28 27 26 27 27 29 29 29 30 30 30 29 27 27 27 27 28 28 28 27 25 24 22 23 23 24 24 24 24 24 24 23 22 22 21 21 20 20 19 19 18 18 18 18 18 18 17 17 17
28 26 25 25 26 26 25 24 17 17 28 31 33 27 27 24 24 25 26 27 22 24 26 26 24 25 26 26 28 24 22 23 30 31 28 27 29 28 27 27 27 27 27 28 29 29 29 30 29 27 27 27 26 26 27 28 28 26 25 22 23 24 25 25 25 24 23 24 24 22 22 21 21 20 19 19 18 18 18 18 18 18 17 16 16 16
32 31 30 25 28 22 22 21 19 23 24 26 24 23 24 21 21 22 20 24 21 23 26 24 24 25 25 26 26 24 22 23 26 27 24 26 29 30 29 28 27 27 27 28 29 30 30 31 30 29 28 26 25 23 21 21 24 24 23 22 22 22 23 24 24 24 23 23 23 22 21 21 20 19 19 18 18 17 17 17 17 17 16 15 15 15
33 29 30 25 24 28 23 22 21 20 18 16 19 24 25 23 23 25 25 25 22 24 27 25 24 24 25 24 25 24 23 20 18 20 22 26 31 32 30 29 27 27 27 28 29 30 31 32 31 30 29 27 26 23 21 24 25 25 24 22 21 21 22 23 23 23 23 23 23 21 20 20 20 19 18 17 17 17 17 17 17 16 15 15 14 14
21 29 28 26 22 21 19 17 17 16 19 19 21 23 24 20 22 25 26 21 21 24 26 25 24 24 26 23 26 21 21 16 17 20 22 30 32 31 29 28 28 27 28 28 29 30 31 32 32 31 30 29 28 24 23 24 25 26 24 23 21 20 21 22 23 22 22 22 21 20 20 19 19 19 17 17 17 16 16 16 16 15 14 14 14 13
16 17 19 14 12 14 15 14 14 17 15 19 20 21 18 16 21 27 18 17 20 24 27 25 24 23 25 26 23 21 20 17 18 21 28 32 32 31 29 28 28 27 27 28 28 30 31 32 31 30 30 30 29 25 23 24 25 24 23 22 21 20 22 22 22 21 20 19 19 18 18 19 19 18 17 16 16 16 16 15 13 12 12 12 12 11
11 10 13 12 12 15 16 13 13 14 24 20 20 18 15 19 19 9 6 14 24 25 26 25 23 25 25 24 23 21 23 26 27 28 31 31 29 26 28 29 28 28 27 27 28 31 30 30 30 29 29 30 29 26 24 24 26 25 23 22 22 23 23 21 20 19 18 18 18 17 17 18 18 17 16 16 15 15 13 12 12 11 11 10 10 9
13 14 15 15 11 10 9 9 9 12 23 19 20 17 17 12 4 5 18 27 25 25 24 24 22 24 24 25 23 24 24 26 27 28 28 27 25 24 25 26 27 27 27 28 29 29 28 28 29 29 29 30 30 28 25 24 25 26 22 20 21 22 19 19 18 18 17 17 17 16 16 15 16 15 14 14 14 13 12 11 11 10 10 9 9 9
10 10 8 8 11 8 7 4 3 1 16 18 17 9 18 10 8 15 24 27 28 25 23 21 24 21 23 22 22 23 23 22 23 23 23 22 22 22 23 24 26 27 28 28 28 28 28 28 28 28 29 30 30 29 26 24 24 24 21 21 23 19 17 17 17 17 17 16 15 15 15 14 14 14 13 12 13 12 11 10 9 9 9 9 9 9
10 2 1 5 7 2 2 1 3 16 16 17 12 7 14 19 20 27 25 22 23 23 21 23 20 21 22 21 21 21 21 21 20 20 19 20 20 21 22 23 26 27 28 28 28 28 29 28 28 29 30 30 30 30 27 24 25 25 23 23 19 18 17 18 17 17 17 16 15 14 14 14 14 13 13 12 12 12 11 9 9 8 8 8 8 7
12 7 13 11 15 12 7 11 14 13 11 7 10 13 15 23 28 26 24 22 20 19 21 20 19 18 20 20 20 21 19 19 19 19 18 18 19 19 20 21 22 23 23 24 25 28 29 28 29 30 30 30 31 30 28 25 25 25 24 24 19 19 17 17 18 17 16 15 15 14 13 13 13 12 12 12 12 10 9 9 9 7 8 8 7 6
13 12 13 13 12 13 13 14 13 9 5 4 5 19 25 27 26 24 22 21 18 18 20 18 18 18 19 20 20 19 18 17 16 16 17 16 16 17 19 19 19 19 21 24 24 25 27 28 29 29 29 29 30 30 29 26 24 24 27 23 21 20 19 18 17 16 15 14 14 14 13 12 11 11 11 11 11 10 9 8 8 7 7 7 6 6
14 14 11 11 10 7 3 6 4 4 3 4 7 17 23 24 24 22 19 18 17 17 17 18 18 18 19 19 19 18 16 16 16 15 14 13 13 14 15 16 16 17 19 21 20 23 23 24 24 23 23 23 24 28 30 29 27 26 26 25 22 21 19 18 18 17 15 14 13 13 12 12 10 9 10 10 10 9 8 8 8 8 7 6 6 6
9 13 11 10 10 8 6 5 5 6 6 7 9 12 19 20 18 17 18 16 16 15 16 17 18 18 17 16 16 15 15 14 13 12 11 11 11 12 13 14 14 15 15 17 17 19 19 18 18 19 19 19 20 22 25 28 29 29 26 24 22 19 18 18 18 17 16 14 13 11 11 11 11 10 10 9 10 9 8 8 8 7 7 6 6 5
9 13 5 10 9 8 8 8 8 8 10 11 12 14 16 17 15 15 14 14 14 14 14 15 15 14 13 12 13 12 12 11 11 10 10 9 10 10 10 11 11 12 12 14 15 16 15 15 16 16 16 16 17 18 21 25 29 30 27 25 21 18 18 18 17 17 15 14 12 11 10 10 9 9 8 8 9 9 8 8 7 8 8 9 8 7
13 12 12 11 8 8 7 6 8 5 5 4 6 14 16 16 15 14 14 14 13 13 14 13 12 12 11 11 11 11 10 9 8 8 8 8 8 9 9 9 9 10 11 11 12 12 12 14 14 13 13 13 15 17 20 23 23 24 26 24 20 18 18 18 16 15 14 13 12 11 9 9 8 8 8 8 7 8 8 10 12 11 9 9 13 14
12 10 9 8 7 5 5 6 10 8 6 7 8 15 16 15 14 14 13 13 12 12 11 10 9 8 8 9 10 9 8 6 5 5 5 6 7 7 7 6 7 7 8 8 9 9 10 10 10 9 9 11 13 16 18 17 17 18 19 22 21 19 18 18 17 15 14 12 11 10 9 9 8 8 7 8 7 7 6 6 10 14 14 13 13 15